This demonstration page uses our WeatherBlox Daily Observations layout. Learn more.

41.55636, -103.73856

Hourly Observations for May 6, 2016

Temp ( °F °C ) Dew Point ( °F °C ) Humidity (%) Winds ( mph kmh ) Pressure ( in mb ) Visibility ( mi km ) Precip ( " mm )
12:53 am 00:53 Clear 66 18.9 41 5 40 40 S 8 13 29.83 1010 10 16.0934 0 0
1:53 am 01:53 Clear 65 18.3 42 5.6 43 43 VRB 7 11 29.81 1010 10 16.0934 0 0
2:53 am 02:53 Clear 65 18.3 42 5.6 43 43 VRB 3 6 29.79 1009 10 16.0934 0 0
3:53 am 03:53 Clear 61 16.1 43 6.1 52 52 Calm 29.79 1009 10 16.0934 0 0
4:53 am 04:53 Clear 60 15.6 43 6.1 53 53 E 3 6 29.79 1009 10 16.0934 0 0
5:53 am 05:53 Sunny 54 12.2 44 6.7 69 69 E 9 15 29.8 1009 10 16.0934 0 0
6:53 am 06:53 Sunny 58 14.4 46 7.8 65 65 E 9 15 29.82 1010 10 16.0934 0 0
7:53 am 07:53 Sunny 60 15.6 46 7.8 60 60 ESE 10 17 29.84 1011 10 16.0934 0 0
8:53 am 08:53 Sunny 63 17.2 47 8.3 56 56 ESE 12 19 29.85 1011 10 16.0934 0 0
9:53 am 09:53 Sunny 68 20 48 8.9 49 49 ESE 13 20 29.84 1010 10 16.0934 0 0
10:53 am 10:53 Sunny 70 21.1 50 10 49 49 SE 10 17 29.83 1010 10 16.0934 0 0
11:53 am 11:53 Sunny 72 22.2 50 10 46 46 E 10 17 29.82 1010 10 16.0934 0 0
12:53 pm 12:53 Sunny 75 23.9 49 9.4 40 40 ESE 10 17 29.79 1009 10 16.0934 0 0
1:53 pm 13:53 Sunny 78 25.6 47 8.3 33 33 E 15 24 29.77 1008 10 16.0934 0 0
2:53 pm 14:53 Sunny 78 25.6 45 7.2 31 31 E 17 28 29.75 1008 10 16.0934 0 0
3:53 pm 15:53 Sunny 81 27.2 46 7.8 29 29 ESE 20 31 29.73 1007 10 16.0934 0 0
4:53 pm 16:53 Sunny 78 25.6 49 9.4 36 36 ESE 13 20 29.73 1007 10 16.0934 0 0
5:53 pm 17:53 Sunny 77 25 47 8.3 35 35 E 16 26 29.76 1008 10 16.0934 0 0
6:53 pm 18:53 Sunny 73 22.8 50 10 44 44 NE 20 31 29.75 1008 10 16.0934 0 0
7:53 pm 19:53 Mostly Sunny 70 21.1 52 11.1 53 53 NE 23 37 29.75 1008 10 16.0934 0 0
8:06 pm 20:06 Mostly Clear with Nearby Thunderstorms 70 21 52 11 53 53 NE 23 37 29.71 1006 10 16.0934 0 0
8:44 pm 20:44 Cloudy with Thunderstorms 66 19 52 11 60 60 N 10 17 29.77 1008 10 16.0934 0 0
8:53 pm 20:53 Cloudy with Light Thunderstorms 67 19.4 53 11.7 61 61 N 17 28 29.86 1011 10 16.0934 0 0.0254
9:38 pm 21:38 Mostly Cloudy with Nearby Thunderstorms 63 17 54 12 73 73 NE 25 41 29.8 1009 10 16.0934 0 0
9:48 pm 21:48 Partly Cloudy with Light Rain 63 17 54 12 73 73 NE 25 41 29.8 1009 10 16.0934 0 0
9:53 pm 21:53 Mostly Clear with Light Rain 62 16.7 53 11.7 73 73 NE 33 54 29.82 1010 10 16.0934 0.1 2.54
10:53 pm 22:53 Mostly Cloudy 61 16.1 52 11.1 72 72 NE 29 46 29.83 1010 10 16.0934 0 0.0254
11:40 pm 23:40 Cloudy with Nearby Thunderstorms 61 16 50 10 68 68 NE 32 52 29.8 1009 10 16.0934 0 0
11:53 pm 23:53 Cloudy with Nearby Thunderstorms 59 15 50 10 72 72 N 21 33 29.84 1011 10 16.0934 0 0.0254

Powered by AerisWeather